Previsão horária em Allerona

Hoje, 15 Junho, Terça-feira

Tempo Temperatura Precipitação Vento Pressão Humidade
00:00 +20°C° 0 mm 1 m/s 724 mmHg 75%
01:00 +19°C° 0 mm 1 m/s 724 mmHg 76%
02:00 +19°C° 0 mm 1 m/s 724 mmHg 77%
03:00 +18°C° 0 mm 1 m/s 724 mmHg 77%
04:00 +18°C° 0 mm 1 m/s 724 mmHg 78%
05:00 +19°C° 0 mm 1 m/s 725 mmHg 72%
06:00 +20°C° 0 mm 1 m/s 725 mmHg 66%
07:00 +22°C° 0 mm 1 m/s 726 mmHg 60%
08:00 +24°C° 0 mm 1 m/s 726 mmHg 53%
09:00 +26°C° 0 mm 2 m/s 726 mmHg 46%
10:00 +28°C° 0 mm 2 m/s 726 mmHg 39%
11:00 +28°C° 0 mm 2 m/s 726 mmHg 38%
12:00 +29°C° 0 mm 2 m/s 726 mmHg 36%
13:00 +30°C° 0 mm 2 m/s 726 mmHg 35%
14:00 +30°C° 0 mm 2 m/s 726 mmHg 37%
15:00 +30°C° 0 mm 2 m/s 725 mmHg 39%
16:00 +30°C° 0 mm 2 m/s 725 mmHg 42%
17:00 +28°C° 0 mm 2 m/s 725 mmHg 49%
18:00 +27°C° 0 mm 2 m/s 725 mmHg 56%
19:00 +25°C° 0 mm 2 m/s 725 mmHg 64%
20:00 +23°C° 0 mm 2 m/s 725 mmHg 72%
21:00 +22°C° 0 mm 1 m/s 725 mmHg 79%
22:00 +20°C° 0 mm 1 m/s 725 mmHg 87%
23:00 +19°C° 0 mm 1 m/s 725 mmHg 88%

Amanhã, 16 Junho, Quarta-feira

Tempo Temperatura Precipitação Vento Pressão Humidade
00:00 +19°C° 0 mm 1 m/s 725 mmHg 90%
01:00 +17°C° 0 mm 0 m/s 725 mmHg 91%
02:00 +16°C° 0 mm 0 m/s 725 mmHg 91%
03:00 +16°C° 0 mm 0 m/s 724 mmHg 91%
04:00 +16°C° 0 mm 0 m/s 724 mmHg 91%
05:00 +18°C° 0 mm 0 m/s 724 mmHg 85%
06:00 +19°C° 0 mm 0 m/s 725 mmHg 79%
07:00 +21°C° 0 mm 0 m/s 725 mmHg 73%
08:00 +22°C° 0.3 mm 0 m/s 725 mmHg 67%
09:00 +26°C° 0.3 mm 1 m/s 725 mmHg 62%
10:00 +28°C° 0.3 mm 1 m/s 725 mmHg 57%
11:00 +28°C° 0.6 mm 1 m/s 725 mmHg 53%
12:00 +29°C° 0.6 mm 1 m/s 725 mmHg 50%
13:00 +30°C° 0.6 mm 2 m/s 725 mmHg 46%
14:00 +29°C° 0.2 mm 2 m/s 724 mmHg 49%
15:00 +29°C° 0.2 mm 3 m/s 724 mmHg 51%
16:00 +28°C° 0.2 mm 4 m/s 724 mmHg 53%
17:00 +26°C° 1.5 mm 3 m/s 724 mmHg 62%
18:00 +24°C° 1.5 mm 2 m/s 724 mmHg 71%
19:00 +21°C° 1.5 mm 2 m/s 724 mmHg 80%
20:00 +19°C° 1.3 mm 2 m/s 725 mmHg 85%
21:00 +19°C° 1.3 mm 1 m/s 725 mmHg 89%
22:00 +18°C° 1.3 mm 1 m/s 725 mmHg 94%
23:00 +18°C° 0 mm 1 m/s 725 mmHg 93%

Depois de amanhã, 17 Junho, Quinta-feira

Tempo Temperatura Precipitação Vento Pressão Humidade
00:00 +18°C° 0 mm 1 m/s 725 mmHg 93%
01:00 +18°C° 0 mm 1 m/s 724 mmHg 93%
02:00 +18°C° 0 mm 1 m/s 724 mmHg 92%
03:00 +18°C° 0 mm 1 m/s 724 mmHg 91%
04:00 +16°C° 0 mm 0 m/s 724 mmHg 91%
05:00 +17°C° 0 mm 0 m/s 725 mmHg 86%
06:00 +18°C° 0 mm 0 m/s 725 mmHg 82%
07:00 +21°C° 0 mm 1 m/s 725 mmHg 78%
08:00 +23°C° 0 mm 1 m/s 725 mmHg 70%
09:00 +25°C° 0 mm 1 m/s 726 mmHg 62%
10:00 +27°C° 0 mm 1 m/s 726 mmHg 54%
11:00 +28°C° 0 mm 1 m/s 726 mmHg 50%
12:00 +28°C° 0 mm 2 m/s 726 mmHg 47%
13:00 +29°C° 0 mm 2 m/s 726 mmHg 44%
14:00 +29°C° 0 mm 2 m/s 725 mmHg 43%
15:00 +30°C° 0 mm 2 m/s 725 mmHg 43%
16:00 +30°C° 0 mm 3 m/s 725 mmHg 43%
17:00 +28°C° 0 mm 2 m/s 725 mmHg 50%
18:00 +26°C° 0 mm 2 m/s 725 mmHg 57%
19:00 +24°C° 0 mm 2 m/s 725 mmHg 64%
20:00 +23°C° 0 mm 2 m/s 725 mmHg 68%
21:00 +21°C° 0 mm 1 m/s 726 mmHg 73%
22:00 +20°C° 0 mm 1 m/s 726 mmHg 78%
23:00 +20°C° 0 mm 1 m/s 726 mmHg 78%

18 Junho, Sexta-feira

Tempo Temperatura Precipitação Vento Pressão Humidade
00:00 +19°C° 0 mm 1 m/s 725 mmHg 79%
01:00 +17°C° 0 mm 0 m/s 725 mmHg 79%
02:00 +17°C° 0 mm 0 m/s 725 mmHg 79%
03:00 +19°C° 0 mm 1 m/s 725 mmHg 78%
04:00 +19°C° 0 mm 1 m/s 726 mmHg 78%
05:00 +20°C° 0 mm 1 m/s 726 mmHg 73%
06:00 +22°C° 0 mm 1 m/s 726 mmHg 67%
07:00 +23°C° 0 mm 1 m/s 726 mmHg 62%
08:00 +25°C° 0 mm 1 m/s 727 mmHg 55%
09:00 +27°C° 0 mm 2 m/s 727 mmHg 48%
10:00 +29°C° 0 mm 2 m/s 727 mmHg 41%
11:00 +30°C° 0 mm 2 m/s 727 mmHg 37%
12:00 +31°C° 0 mm 2 m/s 727 mmHg 34%
13:00 +32°C° 0 mm 2 m/s 727 mmHg 31%
14:00 +33°C° 0 mm 3 m/s 726 mmHg 32%
15:00 +31°C° 0 mm 3 m/s 726 mmHg 33%
16:00 +32°C° 0 mm 4 m/s 726 mmHg 33%
17:00 +29°C° 0 mm 3 m/s 726 mmHg 40%
18:00 +27°C° 0 mm 2 m/s 726 mmHg 47%
19:00 +25°C° 0 mm 2 m/s 726 mmHg 53%
20:00 +24°C° 0 mm 1 m/s 726 mmHg 57%
21:00 +22°C° 0 mm 1 m/s 726 mmHg 61%
22:00 +21°C° 0 mm 1 m/s 726 mmHg 64%
23:00 +20°C° 0 mm 1 m/s 726 mmHg 64%

19 Junho, Sábado

Tempo Temperatura Precipitação Vento Pressão Humidade
00:00 +18°C° 0 mm 0 m/s 726 mmHg 64%
01:00 +17°C° 0 mm 0 m/s 726 mmHg 64%
02:00 +17°C° 0 mm 0 m/s 726 mmHg 64%
03:00 +19°C° 0 mm 1 m/s 726 mmHg 65%
04:00 +19°C° 0 mm 1 m/s 726 mmHg 65%
05:00 +20°C° 0 mm 1 m/s 726 mmHg 60%
06:00 +22°C° 0 mm 1 m/s 727 mmHg 56%
07:00 +24°C° 0 mm 1 m/s 727 mmHg 51%
08:00 +26°C° 0 mm 1 m/s 727 mmHg 46%
09:00 +28°C° 0 mm 1 m/s 727 mmHg 41%
10:00 +30°C° 0 mm 2 m/s 726 mmHg 37%
11:00 +32°C° 0 mm 2 m/s 726 mmHg 34%
12:00 +34°C° 0 mm 2 m/s 726 mmHg 32%
13:00 +35°C° 0 mm 2 m/s 726 mmHg 30%
14:00 +35°C° 0 mm 2 m/s 726 mmHg 30%
15:00 +36°C° 0 mm 2 m/s 726 mmHg 29%
16:00 +36°C° 0 mm 2 m/s 726 mmHg 29%
17:00 +33°C° 0 mm 1 m/s 725 mmHg 36%
18:00 +31°C° 0 mm 1 m/s 725 mmHg 43%
19:00 +29°C° 0 mm 1 m/s 725 mmHg 51%
20:00 +27°C° 0 mm 1 m/s 725 mmHg 54%
21:00 +26°C° 0 mm 1 m/s 725 mmHg 57%
22:00 +24°C° 0 mm 1 m/s 725 mmHg 60%
23:00 +22°C° 0 mm 0 m/s 725 mmHg 61%

20 Junho, Domingo

Tempo Temperatura Precipitação Vento Pressão Humidade
00:00 +21°C° 0 mm 0 m/s 725 mmHg 62%
01:00 +21°C° 0 mm 0 m/s 725 mmHg 62%
02:00 +20°C° 0 mm 0 m/s 725 mmHg 64%
03:00 +22°C° 0 mm 1 m/s 725 mmHg 65%
04:00 +22°C° 0 mm 1 m/s 724 mmHg 67%
05:00 +23°C° 0 mm 1 m/s 725 mmHg 63%
06:00 +25°C° 0 mm 1 m/s 725 mmHg 59%
07:00 +25°C° 0 mm 0 m/s 726 mmHg 55%
08:00 +29°C° 0 mm 1 m/s 726 mmHg 49%
09:00 +31°C° 0 mm 1 m/s 725 mmHg 43%
10:00 +34°C° 0 mm 2 m/s 725 mmHg 37%
11:00 +35°C° 0 mm 2 m/s 725 mmHg 33%
12:00 +37°C° 0 mm 2 m/s 725 mmHg 30%
13:00 +38°C° 0 mm 2 m/s 725 mmHg 26%
14:00 +38°C° 0 mm 2 m/s 724 mmHg 27%
15:00 +37°C° 0 mm 3 m/s 724 mmHg 27%
16:00 +37°C° 0 mm 3 m/s 724 mmHg 28%
17:00 +35°C° 0 mm 3 m/s 723 mmHg 35%
18:00 +31°C° 0 mm 2 m/s 723 mmHg 41%
19:00 +29°C° 0 mm 2 m/s 723 mmHg 48%
20:00 +27°C° 0 mm 2 m/s 723 mmHg 51%
21:00 +25°C° 0 mm 1 m/s 723 mmHg 54%
22:00 +23°C° 0 mm 1 m/s 723 mmHg 57%
23:00 +23°C° 0 mm 1 m/s 723 mmHg 56%
Mostrar mais